x

8720030 - Fernandina Beach, Fl (frdf1) Weather Station

10:54am - Sat 26th Jul 2014 All times are EDT. -4 hours from GMT.

  • Wind
    11mph, 14mph gusts
  • Sea Temp 85°f
  • Air Temp 84°f
  • Sea Pressure 1017.7mb
  • 8720030 - Fernandina Beach, Fl
  • 8720030 - Fernandina Beach, Fl

More Historic Weather Station data

Upgrade to MSW Pro to gain access to the past 30 days of data for over 8000 Wavebouys and Weather Stations around the globe.

Join Pro

Comparision Forecast

View Surf forecast
   
Sat 07/26 10:54am 11 14 mph 1017.7mb 85f 84f
10:48am 10 14 mph 1017.7mb 85f 84f
10:42am 11 14 mph 1017.7mb 85f 84f
10:36am 11 14 mph 1017.7mb 85f 83f
10:30am 11 14 mph 1017.7mb 85f 84f
10:24am 9 14 mph 1017.7mb 85f 83f
10:18am 13 15 mph 1017.6mb 85f 83f
10:12am 10 13 mph 1017.6mb 85f 83f
10:06am 10 13 mph 1017.6mb 85f 83f
10:00am 10 14 mph 1017.6mb 85f 83f
9:54am 9 11 mph 1017.6mb 85f 82f
9:48am 9 13 mph 1017.6mb 85f 82f
9:42am 10 11 mph 1017.6mb 85f 82f
9:36am 10 14 mph 1017.7mb 85f 82f
9:30am 10 11 mph 1017.6mb 85f 82f
9:24am 9 10 mph 1017.6mb 85f 82f
9:18am 9 11 mph 1017.6mb 85f 82f
9:12am 9 13 mph 1017.6mb 85f 81f
9:06am 9 11 mph 1017.6mb 85f 81f
9:00am 10 11 mph 1017.6mb 85f 80f
8:54am 9 13 mph 1017.5mb 85f 80f
8:48am 9 13 mph 1017.5mb 85f 80f
8:42am 9 13 mph 1017.5mb 85f 80f
8:36am 10 13 mph 1017.6mb 85f 80f
8:30am 9 10 mph 1017.5mb 85f 80f
8:24am 10 11 mph 1017.5mb 85f 80f
8:18am 8 10 mph 1017.5mb 85f 79f
8:12am 9 11 mph 1017.4mb 85f 79f
8:06am 8 9 mph 1017.4mb 85f 79f
8:00am 8 10 mph 1017.5mb 85f 78f
7:54am 8 10 mph 1017.5mb 85f 78f
7:48am 9 10 mph 1017.5mb 85f 78f
7:42am 8 9 mph 1017.4mb 85f 78f
7:36am 9 10 mph 1017.3mb 85f 78f
7:30am 9 10 mph 1017.3mb 85f 78f
7:24am 10 11 mph 1017.3mb 85f 78f
7:18am 8 10 mph 1017.3mb 85f 78f
7:12am 8 10 mph 1017.3mb 85f 78f
7:06am 7 9 mph 1017.3mb 85f 77f
7:00am 7 8 mph 1017.3mb 85f 77f
6:54am 8 10 mph 1017.2mb 85f 77f
6:48am 8 9 mph 1017.2mb 85f 77f
6:42am 8 9 mph 1017.1mb 85f 78f
6:36am 7 11 mph 1017.1mb 85f 78f
6:30am 9 11 mph 1017mb 85f 77f
6:24am 8 9 mph 1016.9mb 86f 77f
6:18am 8 9 mph 1016.9mb 86f 77f
6:12am 9 10 mph 1016.8mb 86f 77f
6:06am 10 11 mph 1016.9mb 86f 77f
6:00am 9 10 mph 1016.9mb 86f 77f
5:54am 8 11 mph 1016.9mb 86f 78f
5:48am 7 9 mph 1016.9mb 86f 77f
5:42am 8 10 mph 1016.8mb 86f 77f
5:36am 8 10 mph 1016.8mb 86f 78f
5:30am 9 13 mph 1016.7mb 86f 78f
5:24am 10 14 mph 1016.5mb 86f 78f
5:18am 11 14 mph 1016.4mb 86f 78f
5:12am 10 14 mph 1016.2mb 86f 78f
5:06am 11 14 mph 1016.2mb 86f 78f
5:00am 11 15 mph 1016.1mb 86f 78f
4:54am 13 14 mph 1016mb 86f 78f
4:48am 9 10 mph 1016.1mb 86f 78f
4:42am 9 10 mph 1016.1mb 86f 78f
4:36am 9 13 mph 1016mb 86f 78f
4:30am 11 14 mph 1015.9mb 86f 78f
4:24am 10 11 mph 1016mb 86f 78f
4:18am 10 13 mph 1015.9mb 86f 78f
4:12am 10 11 mph 1015.9mb 86f 78f
4:06am 9 10 mph 1015.9mb 86f 78f
4:00am 9 10 mph 1016mb 86f 78f
3:54am 8 9 mph 1015.9mb 86f 78f
3:48am 9 11 mph 1015.7mb 86f 78f
3:42am 11 13 mph 1015.7mb 86f 78f
3:36am 11 14 mph 1015.6mb 86f 78f
3:30am 11 14 mph 1015.6mb 86f 78f
3:24am 13 14 mph 1015.7mb 86f 78f
3:18am 13 15 mph 1015.7mb 86f 78f
3:12am 11 13 mph 1015.7mb 86f 78f
3:06am 11 15 mph 1015.8mb 86f 78f
3:00am 11 15 mph 1015.8mb 86f 78f
2:54am 11 15 mph 1015.9mb 86f 78f
2:48am 11 14 mph 1016mb 86f 78f
2:42am 11 14 mph 1016mb 86f 79f
2:36am 9 14 mph 1016.2mb 86f 79f
2:30am 10 14 mph 1016.2mb 86f 79f
2:24am 9 14 mph 1016.3mb 86f 79f
2:18am 11 13 mph 1016.3mb 86f 78f
2:12am 9 13 mph 1016.6mb 86f 79f
2:06am 10 11 mph 1016.6mb 86f 79f
2:00am 9 13 mph 1016.6mb 86f 78f
1:54am 10 13 mph 1016.7mb 86f 78f
1:48am  -  mph 1016.7mb 86f 78f
1:42am  -  mph 1016.7mb 86f 78f
1:36am  -  mph 1016.7mb 85f 78f
1:30am 11 14 mph 1016.9mb 85f 78f
1:24am 9 14 mph 1016.9mb 85f 78f
1:18am 11 14 mph 1016.9mb 85f 78f
1:12am 9 13 mph 1017mb 85f 78f
1:06am 10 11 mph 1017.1mb 85f 79f
1:00am 10 15 mph 1017.2mb 85f 79f
12:54am 13 14 mph 1017.1mb 85f 79f
12:48am 13 15 mph 1017.1mb 85f 79f
12:42am 11 14 mph 1017.2mb 85f 79f
12:36am 9 10 mph 1017.2mb 85f 79f
12:30am 9 11 mph 1017.3mb 85f 79f
12:24am 9 10 mph 1017.3mb 85f 79f
12:18am 8 10 mph 1017.4mb 85f 79f
12:12am 8 9 mph 1017.3mb 85f 79f
12:06am 8 10 mph 1017.2mb 85f 79f
12:00am 9 11 mph 1017.2mb 85f 79f
Fri 07/25 11:54pm 9 10 mph 1017.3mb 85f 79f
11:48pm 8 10 mph 1017.2mb - 79f
11:42pm 9 10 mph 1017.1mb - 79f
11:36pm 9 11 mph 1017.2mb - 79f
11:30pm 9 10 mph 1017.1mb 85f 79f
11:24pm 9 11 mph 1017.2mb 85f 79f
11:18pm 10 11 mph 1017.4mb 85f 80f
11:12pm 8 11 mph 1017.3mb 85f 80f
11:06pm 9 13 mph 1017.4mb 86f 80f
11:00pm 9 13 mph 1017.4mb 86f 81f
10:54pm 10 11 mph 1017.1mb 86f 81f
10:48pm 10 13 mph 1016.9mb 86f -
10:42pm 9 11 mph - - -
10:36pm  -  mph 1016.9mb 86f 81f
10:30pm  -  mph 1016.9mb 86f 81f
10:24pm  -  mph 1016.7mb 86f 81f
10:18pm 9 17 mph - 86f 82f
10:12pm  -  mph - 86f 82f
10:06pm 11 15 mph 1016.6mb - 82f
10:00pm 10 17 mph 1016.6mb 86f 82f
9:54pm 10 14 mph 1016.5mb 86f 82f
9:48pm  -  mph 1016.2mb 86f 82f
9:42pm  -  mph 1016.1mb 85f 82f
9:36pm  -  mph 1015.9mb 85f 82f
9:30pm 6 9 mph 1015.8mb 85f 82f
9:24pm 8 10 mph 1015.7mb 85f 82f
9:18pm 7 9 mph 1015.8mb 85f 82f
9:12pm 7 10 mph 1015.8mb 85f 82f
9:06pm 8 11 mph 1015.9mb 85f 82f
9:00pm 7 13 mph 1015.9mb 85f 82f
8:54pm 8 10 mph 1015.9mb 85f 82f
8:48pm 7 11 mph 1016mb 85f 82f
8:42pm 6 11 mph 1016mb 85f 82f
8:36pm 7 9 mph 1015.8mb 85f 82f
8:30pm 8 9 mph 1015.9mb 85f 82f
8:24pm 8 13 mph 1016.1mb 85f 82f
8:18pm 9 13 mph 1016.2mb 85f 82f
8:12pm 9 13 mph 1016.2mb 85f 82f
8:06pm 8 13 mph 1016.3mb 85f 82f
8:00pm 8 11 mph 1016.2mb 85f 83f
7:54pm 9 13 mph 1015.8mb 86f 83f
7:48pm 8 13 mph 1015.7mb 86f 83f
7:42pm 7 14 mph 1015.7mb 86f 83f
7:36pm 9 13 mph 1015.6mb 86f 83f
7:30pm 8 13 mph 1015.6mb 86f 83f
7:24pm 7 10 mph 1015.6mb 86f 83f
7:18pm 8 14 mph 1015.7mb 86f 83f
7:12pm 7 13 mph 1015.6mb 86f 84f
7:06pm 6 13 mph 1015.7mb 86f 84f
7:00pm 8 13 mph 1015.6mb 86f 84f
6:54pm 8 18 mph 1015.5mb 86f 85f
6:48pm 9 14 mph 1015.4mb 86f 85f
6:42pm 11 15 mph 1015.5mb 86f 85f
6:36pm 9 18 mph 1015.5mb 86f 85f
6:30pm 11 16 mph 1015.7mb 86f 85f
6:24pm 11 18 mph 1015.7mb 86f 85f
6:18pm 10 17 mph 1015.6mb 86f 85f
6:12pm 8 21 mph 1015.6mb 86f 85f
6:06pm 11 17 mph 1015.6mb 86f 85f
6:00pm 9 15 mph 1015.5mb 86f 85f
5:54pm 10 16 mph 1015.6mb 86f 84f
5:48pm 8 14 mph 1015.6mb 86f 84f
5:42pm 8 13 mph 1015.6mb 86f 83f
5:36pm 8 14 mph 1015.6mb 86f 83f
5:30pm 6 10 mph 1015.5mb 86f 83f
5:24pm 7 14 mph 1015.2mb 86f 82f
5:18pm 8 10 mph 1015.1mb 86f 82f
5:12pm 8 11 mph 1015.1mb 86f 81f
5:06pm 7 10 mph 1014.9mb 86f 81f
5:00pm 5 7 mph 1014.9mb 86f 80f
4:54pm 7 10 mph 1014.9mb 87f 79f
4:48pm 6 10 mph 1014.9mb 87f 79f
4:42pm 8 13 mph 1015mb 87f 79f
4:36pm 9 13 mph 1015mb 87f 79f
4:30pm 10 22 mph 1015mb 87f 78f
4:24pm 18 25 mph 1014.9mb 87f 78f
4:18pm 17 22 mph 1015.2mb 87f 79f
4:12pm 14 28 mph 1015.5mb 87f 80f
4:06pm 22 28 mph 1015.5mb 87f 82f
4:00pm 13 22 mph 1015.6mb 87f 84f
3:54pm 13 20 mph 1015.7mb 87f 86f
3:48pm 10 17 mph 1015.5mb 87f 86f
3:42pm 13 16 mph 1015.7mb 87f 85f
3:36pm 10 15 mph 1015.9mb 87f 86f
3:30pm 11 20 mph 1015.8mb 87f 86f
3:24pm 13 16 mph 1015.8mb 87f 86f
3:18pm 9 18 mph 1015.8mb 87f 87f
3:12pm 7 9 mph 1016.2mb 87f 89f
3:06pm 7 11 mph 1016.2mb 87f 90f
3:00pm 7 10 mph 1016.1mb 87f 90f
2:54pm 5 8 mph 1016.2mb 87f 90f
2:48pm 6 9 mph 1016.1mb 87f 90f
2:42pm 8 13 mph 1016.1mb 87f 89f
2:36pm 5 11 mph 1016.2mb 87f 90f
2:30pm 8 10 mph 1016.2mb 87f 90f
2:24pm 7 9 mph 1016.2mb 87f 89f
2:18pm 6 14 mph 1016.3mb 87f 89f
2:12pm 8 11 mph 1016.4mb 86f 89f
2:06pm 6 10 mph 1016.5mb 86f 89f
2:00pm 3 9 mph 1016.6mb 86f 89f
1:54pm 7 11 mph 1016.6mb 86f 89f
1:48pm 11 14 mph 1016.6mb 86f 89f
1:42pm 7 14 mph 1016.7mb 86f 89f
1:36pm 9 15 mph 1016.7mb 86f 89f
1:30pm 7 14 mph 1016.8mb 86f 88f
1:24pm 8 13 mph 1016.9mb 86f 88f
1:18pm 9 14 mph 1016.9mb 86f 88f
1:12pm 7 9 mph 1016.9mb 86f 88f
1:06pm 8 13 mph 1016.9mb 86f 88f
1:00pm 7 11 mph 1017mb 86f 87f
12:54pm 8 11 mph 1017mb 86f 87f
12:48pm 9 13 mph 1017mb 86f 87f
12:42pm 11 15 mph 1017mb 86f 87f
12:36pm 10 13 mph 1017.1mb 85f 87f
12:30pm 8 14 mph 1017.1mb 85f 87f
12:24pm 10 13 mph 1017.2mb 85f 87f
12:18pm 7 14 mph 1017.3mb 85f 87f
12:12pm 13 15 mph 1017.3mb 85f 87f
12:06pm 10 13 mph 1017.4mb 85f 86f
12:00pm 9 15 mph 1017.4mb 85f 86f
11:54am 8 14 mph 1017.4mb 85f 86f
11:48am 8 13 mph 1017.4mb 86f 85f
11:42am 11 14 mph 1017.5mb 85f 86f
11:36am 11 14 mph 1017.6mb 85f 85f
11:30am 7 16 mph 1017.6mb 85f 85f
11:24am 9 13 mph 1017.6mb 85f 85f
11:18am 9 13 mph 1017.6mb 85f 85f
11:12am 11 15 mph 1017.7mb 85f 85f
11:06am 10 13 mph 1017.7mb 85f 85f
11:00am 9 13 mph 1017.6mb 85f 85f
10:54am 8 13 mph 1017.6mb 85f 84f
10:48am 8 13 mph 1017.6mb 85f 84f
10:42am 10 13 mph 1017.5mb 85f 84f
10:36am 10 14 mph 1017.5mb 85f 83f
10:30am 10 13 mph 1017.4mb 85f 83f
10:24am 7 10 mph 1017.5mb 85f 83f
10:18am 9 13 mph 1017.5mb 85f 83f
10:12am 11 15 mph 1017.6mb 85f 83f
10:06am 8 11 mph 1017.7mb 85f 83f
10:00am 10 14 mph 1017.7mb 85f 83f
9:54am 8 11 mph 1017.6mb 85f 83f
9:48am 10 14 mph 1017.7mb 85f 82f
9:42am 9 13 mph 1017.6mb 85f 82f
9:36am 9 11 mph 1017.7mb 85f 82f
9:30am 8 13 mph 1017.7mb 85f 82f
9:24am 9 10 mph 1017.7mb 85f 82f
9:18am 7 11 mph 1017.7mb 85f 82f
9:12am 8 10 mph 1017.7mb 85f 82f
9:06am 9 11 mph 1017.7mb 85f 81f
9:00am 8 11 mph 1017.7mb 85f 81f
8:54am 10 11 mph 1017.7mb 85f 81f
8:48am 10 13 mph 1017.6mb 85f 81f
8:42am 8 10 mph 1017.5mb 85f 80f
8:36am 9 13 mph 1017.4mb 85f 80f
8:30am 8 10 mph 1017.3mb 85f 80f
8:24am 8 10 mph 1017.3mb 85f 80f
8:18am 8 9 mph 1017.2mb 85f 79f
8:12am 9 11 mph 1017.1mb 85f 79f
8:06am 8 10 mph 1017.1mb 85f 79f
8:00am 6 10 mph 1017.1mb 85f 79f
7:54am 7 8 mph 1017.1mb 85f 79f
7:48am 7 9 mph 1017.1mb 85f 79f
7:42am 7 9 mph 1017.1mb 85f 78f
7:36am 7 9 mph 1017.1mb 85f 78f
7:30am 7 8 mph 1017.1mb 85f 78f
7:24am 6 7 mph 1017.1mb 85f 78f
7:18am 6 8 mph 1017mb 85f 78f
7:12am 6 8 mph 1016.9mb 85f 78f
7:06am 7 9 mph 1016.8mb 86f 78f
7:00am 6 8 mph 1016.7mb 86f 78f
6:54am 6 8 mph 1016.6mb 86f 78f
6:48am 6 8 mph 1016.5mb 86f 78f
6:42am 7 9 mph 1016.5mb 86f 78f
6:36am 8 9 mph 1016.5mb 86f 78f
6:30am 7 9 mph 1016.5mb 86f 78f
6:24am 6 8 mph 1016.4mb 86f 78f
6:18am 7 9 mph 1016.4mb 86f 78f
6:12am 6 8 mph 1016.4mb 86f 78f
6:06am 6 7 mph 1016.4mb 86f 78f
6:00am 6 7 mph 1016.4mb 86f 78f
5:54am 6 8 mph 1016.4mb 86f 78f
5:48am 6 8 mph 1016.3mb 86f 78f
5:42am 6 8 mph 1016.2mb 86f 78f
5:36am 6 8 mph 1016.1mb 86f 78f
5:30am 7 8 mph 1016.1mb 86f 78f
5:24am 6 8 mph 1016mb 86f 78f
5:18am 6 8 mph 1016mb 86f 78f
5:12am 6 8 mph 1015.9mb 86f 78f
5:06am 6 8 mph 1015.9mb 86f 78f
5:00am 6 8 mph 1015.9mb 86f 78f
4:54am 6 8 mph 1015.8mb 86f 78f
4:48am 6 8 mph 1015.8mb 86f 78f
4:42am 6 8 mph 1015.8mb 86f 78f
4:36am 6 7 mph 1015.8mb 86f 78f
4:30am 6 8 mph 1015.8mb 86f 78f
4:24am 6 7 mph 1015.8mb 86f 78f
4:18am 6 7 mph 1015.8mb 86f 78f
4:12am 6 8 mph 1015.8mb 86f 78f
4:06am 7 9 mph 1015.7mb 86f 79f
4:00am 7 8 mph 1015.7mb 86f 79f
3:54am 5 8 mph 1015.6mb 86f 79f
3:48am 7 8 mph 1015.6mb 86f 79f
3:42am 6 7 mph 1015.5mb 86f 79f
3:36am 6 7 mph 1015.5mb 86f 79f
3:30am 5 6 mph 1015.4mb 86f 79f
3:24am 5 6 mph 1015.5mb 86f 79f
3:18am 6 8 mph 1015.5mb 86f 79f
3:12am 7 8 mph 1015.4mb 86f 79f
3:06am 8 10 mph 1015.4mb 86f 79f
3:00am 7 9 mph 1015.4mb 86f 79f
2:54am 7 8 mph 1015.4mb 86f 80f
2:48am 7 9 mph 1015.5mb 86f 79f
2:42am 7 8 mph 1015.5mb 86f 79f
2:36am 7 9 mph 1015.4mb 86f 80f
2:30am 7 8 mph 1015.4mb 86f 79f
2:24am 7 8 mph 1015.3mb 86f 80f
2:18am 8 9 mph 1015.4mb 86f 80f
2:12am 7 8 mph 1015.4mb 86f 80f
2:06am 7 9 mph 1015.4mb 86f 80f
2:00am 7 9 mph 1015.5mb 86f 80f
1:54am 8 11 mph 1015.6mb 86f 80f
1:48am 8 10 mph 1015.5mb 86f 80f
1:42am 8 10 mph 1015.5mb 86f 80f
1:36am 7 9 mph 1015.5mb 86f 80f
1:30am 7 10 mph 1015.6mb 86f 80f
1:24am 8 10 mph 1015.6mb 86f 81f
1:18am 9 11 mph 1015.6mb 86f 81f
1:12am 9 10 mph 1015.5mb 86f 81f
1:06am 9 10 mph 1015.5mb 86f 81f
1:00am 7 8 mph 1015.6mb 86f 81f
12:54am 7 8 mph 1015.6mb 86f 81f
12:48am 7 9 mph 1015.6mb 86f 81f
12:42am 7 8 mph 1015.5mb 86f 82f
12:36am 7 9 mph 1015.5mb 86f 82f
12:30am 7 9 mph 1015.5mb 86f 82f
12:24am 7 9 mph 1015.6mb 86f 82f
12:18am 7 8 mph 1015.7mb 86f 82f
12:12am 7
mph
1015.6mb 86f 82f
12:06am 6 7 mph 1015.6mb 86f 82f
12:00am 6 7 mph 1015.7mb 86f 82f
Thu 07/24 11:54pm 6 8 mph 1015.7mb 86f 82f
11:48pm 7 9 mph 1015.8mb 86f 83f
11:42pm 7 8 mph 1015.7mb 86f 83f
11:36pm 8 9 mph 1015.7mb 86f 83f
11:30pm 7 9 mph 1015.7mb 86f 83f
11:24pm 8 10 mph 1015.7mb 86f 83f
11:18pm 9 10 mph 1015.6mb 86f 83f
11:12pm 7 9 mph 1015.5mb 86f 83f
11:06pm 7 8 mph 1015.4mb 86f 83f
11:00pm 7 9 mph 1015.3mb 86f 84f
10:54pm 7 8 mph 1015.3mb 86f 84f
10:48pm 7 8 mph 1015.2mb 86f 84f
10:42pm 7 8 mph 1015.2mb 86f 84f
10:36pm 7 8 mph 1015.1mb 86f 84f
10:30pm 6 7 mph 1015.1mb 86f 85f
10:24pm 6 7 mph 1015mb 86f 85f
10:18pm 7 9 mph 1014.9mb 86f 85f
10:12pm 7 8 mph 1014.9mb 86f 85f
10:06pm 7 8 mph 1014.8mb 85f 85f
10:00pm 6 8 mph 1014.7mb 85f 86f
9:54pm 6 9 mph 1014.7mb 85f 86f
9:48pm 9 10 mph 1014.7mb 85f 87f
9:42pm 9 10 mph 1014.6mb 85f 87f
9:36pm 8 9 mph 1014.4mb 85f 87f
9:30pm 9 10 mph 1014.3mb 85f 87f
9:24pm 6 8 mph 1014.2mb 85f 86f
9:18pm 5 6 mph 1014.2mb 85f 86f
9:12pm 5 7 mph 1014.1mb 85f 86f
9:06pm 5 6 mph 1014.1mb 85f 86f
9:00pm 5 6 mph 1014.1mb 85f 86f
8:54pm 3 6 mph 1014.1mb 85f 86f
8:48pm 5 6 mph 1013.9mb 85f 86f
8:42pm 5 7 mph 1013.9mb 85f 86f
8:36pm 5 7 mph 1013.8mb 85f 86f
8:30pm 6 9 mph 1013.7mb 85f 86f
8:24pm 7 10 mph 1013.6mb 85f 85f
8:18pm 9 13 mph 1013.6mb 85f 86f
8:12pm 7 11 mph 1013.7mb 85f 86f
8:06pm 9 14 mph 1013.8mb 85f 86f
8:00pm 7 11 mph 1013.8mb 85f 86f
7:54pm 9 13 mph 1013.7mb 85f 86f
7:48pm 7 14 mph 1013.7mb 85f 86f
7:42pm 8 14 mph 1013.7mb 85f 86f
7:36pm 9 15 mph 1013.7mb 85f 87f
7:30pm 9 14 mph 1013.5mb 85f 87f
7:24pm 7 14 mph 1013.5mb 85f 87f
7:18pm 8 13 mph 1013.4mb 85f 87f
7:12pm 7 17 mph 1013.4mb 85f 87f
7:06pm 9 15 mph 1013.3mb 85f 87f
7:00pm 10 15 mph 1013.1mb 85f 87f
6:54pm 9 14 mph 1013.1mb 85f 87f
6:48pm 9 13 mph 1013.2mb 85f 88f
6:42pm 9 13 mph 1013.1mb 85f 88f
6:36pm 7 15 mph 1013.2mb 85f 88f
6:30pm 9 13 mph 1013.2mb 85f 88f
6:24pm 7 14 mph 1013.2mb 85f 89f
6:18pm 9 14 mph 1013.2mb 85f 88f
6:12pm 11 16 mph 1013.2mb 85f 88f
6:06pm 8 13 mph 1013.3mb 85f 89f
6:00pm 8 11 mph 1013.2mb 86f 89f
5:54pm 7 13 mph 1013.2mb 86f 89f
5:48pm 7 13 mph 1013.2mb 86f 90f
5:42pm 8 14 mph 1013.2mb 86f 89f
5:36pm 8 16 mph 1013.2mb 86f 89f
5:30pm 9 13 mph 1013.3mb 86f 89f
5:24pm 10 14 mph 1013.3mb 86f 91f
5:18pm 8 13 mph 1013.2mb 86f 90f
5:12pm 10 13 mph 1013.1mb 86f 90f
5:06pm 9 11 mph 1013.2mb 86f 90f
5:00pm 9 11 mph 1013.3mb 85f 90f
4:54pm 7 10 mph 1013.4mb 85f 90f
4:48pm 6 10 mph 1013.5mb 85f 90f
4:42pm 9 14 mph 1013.6mb 85f 90f
4:36pm 10 14 mph 1013.6mb 85f 90f
4:30pm 10 13 mph 1013.6mb 86f 90f
4:24pm 8 13 mph 1013.7mb 85f 90f
4:18pm 11 14 mph 1013.7mb 86f 90f
4:12pm 5 11 mph 1013.8mb 86f 90f
4:06pm 9 15 mph 1013.9mb 86f 90f
4:00pm 9 11 mph 1013.9mb 86f 90f
3:54pm 9 13 mph 1014.1mb 86f 90f
3:48pm 6 15 mph 1014.1mb 86f 90f
3:42pm 9 14 mph 1014.2mb 86f 90f
3:36pm 10 15 mph 1014.4mb 86f 90f
3:30pm 9 13 mph 1014.4mb 86f 90f
3:24pm 8 10 mph 1014.4mb 86f 89f
3:18pm 10 13 mph 1014.5mb 86f 90f
3:12pm 10 14 mph 1014.6mb 86f 90f
3:06pm 13 16 mph 1014.7mb 86f 89f
3:00pm 11 15 mph 1014.8mb 86f 89f
2:54pm 11 15 mph 1014.9mb 86f 89f
2:48pm 13 17 mph 1014.9mb 86f 89f
2:42pm 9 14 mph 1014.9mb 86f 89f
2:36pm 10 14 mph 1014.9mb 86f 89f
2:30pm 13 15 mph 1015mb 86f 89f
2:24pm 9 14 mph 1015.1mb 86f 89f
2:18pm 13 15 mph 1015.2mb 86f 88f
2:12pm 10 15 mph 1015.2mb 86f 89f
2:06pm 10 13 mph 1015.3mb 86f 88f
2:00pm 9 14 mph 1015.4mb 86f 88f
1:54pm 6 9 mph 1015.4mb 86f 88f
1:48pm 8 13 mph 1015.5mb 86f 88f
1:42pm 11 16 mph 1015.6mb 86f 87f
1:36pm 13 17 mph 1015.7mb 86f 88f
1:30pm 7 11 mph 1015.7mb 86f 87f
1:24pm 13 15 mph 1015.8mb 86f 87f
1:18pm 9 14 mph 1015.9mb 85f 87f
1:12pm 10 15 mph 1015.9mb 85f 87f
1:06pm 10 14 mph 1016mb 85f 87f
1:00pm 7 11 mph 1016mb 85f 86f
12:54pm 10 14 mph 1016mb 85f 86f
12:48pm 10 14 mph 1016mb - 86f
12:42pm 9 14 mph 1016.1mb - 86f
12:36pm 10 14 mph 1016.1mb - 86f
12:30pm 9 11 mph 1016.2mb 85f 86f
12:24pm 10 14 mph 1016.2mb 85f 85f
12:18pm 6 11 mph 1016.3mb 85f 86f
12:12pm 8 10 mph 1016.4mb 85f 86f
12:06pm 8 14 mph 1016.4mb 85f 85f
12:00pm 9 13 mph 1016.4mb 85f 86f
11:54am 9 13 mph 1016.4mb 85f 85f
11:48am 7 9 mph 1016.4mb 85f 85f
11:42am 10 14 mph 1016.5mb 85f 84f
11:36am 8 13 mph 1016.5mb 85f 84f
11:30am 9 11 mph 1016.4mb 85f 84f
11:24am 9 11 mph 1016.4mb 85f 84f
11:18am 8 11 mph 1016.4mb 85f 83f
11:12am 10 11 mph 1016.4mb 85f 83f
11:06am 8 14 mph 1016.4mb 85f 83f
11:00am 8 10 mph 1016.5mb 85f 83f
10:54am 9 11 mph 1016.5mb 85f 83f
10:48am 6 9 mph 1016.5mb 85f 83f
10:42am 8 10 mph 1016.4mb 85f 83f
10:36am 8 10 mph 1016.4mb 85f 82f
10:30am 8 11 mph 1016.4mb 85f 82f
10:24am 7 11 mph 1016.4mb 85f 82f
10:18am 8 11 mph 1016.4mb 85f 82f
10:12am 8 11 mph 1016.4mb 85f 82f
10:06am 7 9 mph 1016.5mb 85f 82f
10:00am 8 10 mph 1016.4mb 85f 81f
9:54am 7 9 mph 1016.5mb 85f 81f
9:48am 8 9 mph 1016.6mb 85f 81f
9:42am 9 11 mph 1016.6mb 85f 81f
9:36am 7 9 mph 1016.6mb 85f 81f
9:30am 7 11 mph 1016.6mb 85f 81f
9:24am 7 10 mph 1016.6mb 85f 81f
9:18am 9 11 mph 1016.5mb 85f 80f
9:12am 8 11 mph 1016.5mb 85f 80f
9:06am 8 10 mph 1016.5mb 85f 80f
9:00am 8 10 mph 1016.4mb 85f 80f
8:54am 9 10 mph 1016.4mb 85f 79f
8:48am 8 9 mph 1016.4mb 85f 79f
8:42am 8 10 mph 1016.4mb 85f 79f
8:36am 9 11 mph 1016.4mb 85f 79f
8:30am 9 11 mph 1016.4mb 85f 79f
8:24am 8 10 mph 1016.4mb 85f 79f
8:18am 7 9 mph 1016.3mb 85f 79f
8:12am 7 9 mph 1016.3mb 85f 79f
8:06am 6 9 mph 1016.4mb 85f 79f
8:00am 7 9 mph 1016.4mb 85f 78f
7:54am 6 9 mph 1016.3mb 85f 78f
7:48am 7 9 mph 1016.4mb 85f 78f
7:42am 7 9 mph 1016.3mb 85f 78f
7:36am 6 9 mph 1016.2mb 85f 78f
7:30am 7 9 mph 1016.1mb 85f 78f
7:24am 7 9 mph 1016mb 85f 78f
7:18am 7 9 mph 1016mb 85f 78f
7:12am 7 10 mph 1015.9mb 85f 78f
7:06am 8 9 mph 1015.9mb 85f 78f
7:00am 8
mph
1015.9mb 85f 78f
6:54am 6 8 mph 1015.8mb 85f 78f
6:48am 6 7 mph 1015.8mb 85f 78f
6:42am 6 7 mph 1015.7mb 85f 77f
6:36am 6 7 mph 1015.6mb 85f 77f
6:30am 6 7 mph 1015.5mb 85f 77f
6:24am 6 8 mph 1015.4mb 85f 78f
6:18am 7 8 mph 1015.5mb 85f 78f
6:12am 7 9 mph 1015.5mb 85f 78f
6:06am 6 8 mph 1015.6mb 85f 77f
6:00am 7 8 mph 1015.5mb 85f 78f
5:54am 8 9 mph 1015.4mb 85f 78f
5:48am 6 7 mph 1015.4mb 85f 78f
5:42am 6 7 mph 1015.3mb 85f 78f
5:36am 6 7 mph 1015.2mb 85f 78f
5:30am 6 7 mph 1015.3mb 85f 78f
5:24am 6 7 mph 1015.2mb 85f 78f
5:18am 6 8 mph 1015.2mb 85f 78f
5:12am 6 8 mph 1015.1mb 85f 78f
5:06am 6 8 mph 1015.1mb 85f 78f
5:00am 7 10 mph 1015.1mb 85f 78f
4:54am 7 8 mph 1015.2mb 85f 78f
4:48am 6 8 mph 1015.1mb 85f 78f
4:42am 7 9 mph 1015.1mb 85f 78f
4:36am 6
mph
1015.1mb 85f 78f
4:30am 5 9 mph 1015mb 85f 78f
4:24am 7 8 mph 1015mb 85f 78f
4:18am 7 9 mph 1015mb 85f 78f
4:12am 8 9 mph 1015mb 85f 79f
4:06am 8 9 mph 1015mb 85f 79f
4:00am 7 8 mph 1015mb 85f 79f
3:54am 6 7 mph 1015mb 85f 79f
3:48am 6 8 mph 1015mb 85f 79f
3:42am 6 8 mph 1015mb 85f 79f
3:36am 6 7 mph 1015mb 85f 79f
3:30am 6 7 mph 1015.1mb 85f 79f
3:24am 6 7 mph 1015.1mb 85f 79f
3:18am 6 7 mph 1015.1mb 85f 79f
3:12am 7 8 mph 1015.1mb 85f 79f
3:06am 7 10 mph 1015.2mb 85f 80f
3:00am 7 9 mph 1015.2mb 85f 80f
2:54am 7 9 mph 1015.2mb 85f 80f
2:48am 6 9 mph 1015.3mb 85f 80f
2:42am 6 8 mph 1015.4mb 85f 80f
2:36am 7 10 mph 1015.4mb 85f 80f
2:30am 8 10 mph 1015.4mb 85f 80f
2:24am 8 11 mph 1015.5mb 85f 80f
2:18am 8 10 mph 1015.5mb 85f 80f
2:12am 8 10 mph 1015.5mb 85f 80f
2:06am 9 11 mph 1015.5mb 85f 80f
2:00am 10 14 mph 1015.5mb 85f 81f
1:54am 11 14 mph 1015.6mb 85f 80f
1:48am 11 14 mph 1015.6mb 85f 81f
1:42am 10 11 mph 1015.6mb 85f 81f
1:36am 9 13 mph 1015.7mb 85f 81f
1:30am 10 13 mph 1015.8mb 85f 81f
1:24am 10 13 mph 1015.8mb 85f 81f
1:18am 11 16 mph 1015.8mb 85f 81f
1:12am 10 14 mph 1015.8mb 85f 81f
1:06am 11 14 mph 1015.7mb 85f 81f
1:00am 10 14 mph 1015.6mb 85f 81f
12:54am 10 14 mph 1015.6mb 85f 81f
12:48am 8 14 mph 1015.7mb 85f 81f
12:42am 10 13 mph 1015.7mb 85f 81f
12:36am 10 13 mph 1015.7mb 85f 81f
12:30am 9 13 mph 1015.6mb 85f 81f
12:24am 10 14 mph 1015.6mb 85f 81f
12:18am 10 13 mph 1015.7mb 85f -
12:12am 9 13 mph 1015.6mb 85f -
12:06am 10 13 mph 1015.6mb 85f -
12:00am 8 15 mph 1015.7mb 85f 81f
Wed 07/23 11:54pm 8 13 mph 1015.7mb 85f 81f
11:48pm 9 15 mph 1015.8mb 85f 82f
11:42pm 9 11 mph 1015.9mb 85f 82f
11:36pm 8 11 mph 1015.8mb 85f 82f
11:30pm 7 11 mph 1015.7mb 85f 82f
11:24pm 8 13 mph 1015.6mb 85f 82f
11:18pm 7 9 mph 1015.6mb 85f 82f
11:12pm 7 10 mph 1015.5mb 85f 82f
11:06pm 6 9 mph 1015.5mb 85f 82f
11:00pm 6 9 mph 1015.5mb 85f 82f
10:54pm 7 9 mph 1015.6mb 85f 82f
10:48pm 6 11 mph 1015.6mb 85f 82f
10:42pm 6 9 mph 1015.7mb 85f 82f
10:36pm 8 11 mph 1015.6mb 85f 82f
10:30pm 7 10 mph 1015.6mb 85f 82f
10:24pm 8 11 mph 1015.6mb 85f 82f
10:18pm 8 14 mph 1015.6mb 85f 82f
10:12pm 9 13 mph 1015.5mb 85f 82f
10:06pm 8 11 mph 1015.6mb 85f 82f
10:00pm 8 11 mph 1015.6mb 85f 82f
9:54pm 8 11 mph 1015.5mb 85f 83f
9:48pm 6 9 mph 1015.4mb 85f 83f
9:42pm 7 9 mph 1015.4mb 85f 83f
9:36pm 7 10 mph 1015.3mb 85f 83f
9:30pm 8 9 mph 1015.2mb 85f 83f
9:24pm 7 10 mph 1015.1mb 85f 83f
9:18pm 7 11 mph 1015.2mb 85f 83f
9:12pm 8 11 mph 1015.2mb 85f 83f
9:06pm 6 11 mph 1015.2mb 85f 83f
9:00pm 6 10 mph 1015.2mb 85f 83f
8:54pm 7 11 mph 1015.1mb 85f 83f
8:48pm 8 10 mph 1015.1mb 85f 83f
8:42pm 7 11 mph 1015mb 85f 83f
8:36pm 7 11 mph 1015.1mb 85f 83f
8:30pm 8 11 mph 1015.1mb 85f 83f
8:24pm 6 14 mph 1015.3mb 85f 83f
8:18pm 10 15 mph 1015.4mb 85f 83f
8:12pm 10 15 mph 1015.4mb 85f 83f
8:06pm 7 13 mph 1015.4mb 85f 84f
8:00pm 7 11 mph 1015.2mb 85f 84f
7:54pm 8 11 mph 1015.1mb 85f 84f
7:48pm 6 7 mph 1015.1mb 85f 84f
7:42pm 7 11 mph 1014.9mb 85f 84f
7:36pm 8 11 mph 1015mb 85f 84f
7:30pm 6 10 mph 1015mb 85f 84f
7:24pm 7 10 mph 1015.1mb 85f 84f
7:18pm 7 11 mph 1015.2mb 85f 84f
7:12pm 7 8 mph 1015.2mb 85f 84f
7:06pm 8 13 mph 1015.4mb 85f 84f
7:00pm 10 13 mph 1015.3mb 85f 84f
6:54pm 9 14 mph 1015.2mb 85f 84f
6:48pm 9 13 mph 1015.2mb 85f 84f
6:42pm 10 14 mph 1015.4mb 85f 84f
6:36pm 8 11 mph 1015.4mb 85f 84f
6:30pm 9 14 mph 1015.5mb 85f 84f
6:24pm 8 11 mph 1015.4mb 85f 85f
6:18pm 7 10 mph 1015.5mb 85f 85f
6:12pm 7 11 mph 1015.6mb 85f 85f
6:06pm 8 11 mph 1015.7mb 85f 85f
6:00pm 5 11 mph 1015.6mb 85f 85f
5:54pm 7 10 mph 1015.5mb 85f 85f
5:48pm 8 10 mph 1015.6mb 85f 84f
5:42pm 7 10 mph 1015.8mb 85f 84f
5:36pm 6 10 mph 1015.8mb 85f 85f
5:30pm 6 9 mph 1016mb 85f 85f
5:24pm 6 9 mph 1016.1mb 85f 84f
5:18pm 6 10 mph 1016.1mb 85f 85f
5:12pm 6 9 mph 1016.3mb 85f 85f
5:06pm 7 9 mph 1016.2mb 85f 85f
5:00pm 6 8 mph 1016.3mb 85f 85f
4:54pm 7 11 mph 1016.4mb 85f 84f
4:48pm 6 11 mph 1016.3mb 85f 85f
4:42pm 7 11 mph 1016.2mb 85f 84f
4:36pm 6 11 mph 1016.1mb 85f 85f
4:30pm 8 13 mph 1016.2mb 85f 85f
4:24pm 7 14 mph 1016.1mb 85f 85f
4:18pm 6 10 mph 1016.2mb 85f 85f
4:12pm 10 15 mph 1016.2mb 85f 84f
4:06pm 6 14 mph 1016.5mb 85f 85f
4:00pm 8 13 mph 1016.6mb 85f 86f
3:54pm 6 14 mph 1016.6mb 85f 87f
3:48pm 6 11 mph 1016.5mb 85f 87f
3:42pm 8 13 mph 1016.7mb 85f 86f
3:36pm 7 14 mph 1016.7mb 85f 87f
3:30pm 7 11 mph 1016.7mb 85f 87f
3:24pm 8 15 mph 1016.7mb 85f 86f
3:18pm 8 14 mph 1016.8mb 85f 86f
3:12pm 8 14 mph 1016.8mb 85f 86f
3:06pm 8 10 mph 1016.9mb 85f 86f
3:00pm 6 13 mph 1016.9mb 85f 87f
2:54pm 7 10 mph 1017mb 85f 86f
2:48pm 6 8 mph 1017.1mb 85f 87f
2:42pm 7 10 mph 1017.2mb 85f 86f
2:36pm 7 10 mph 1017.4mb 85f 86f
2:30pm 6 8 mph 1017.4mb 85f 87f
2:24pm 5 10 mph 1017.4mb 85f 87f
2:18pm 6 9 mph 1017.4mb 85f 87f
2:12pm 8 13 mph 1017.5mb 85f 87f
2:06pm 5 8 mph 1017.6mb 85f 87f
2:00pm 6 10 mph 1017.5mb 85f 87f
1:54pm 6 11 mph 1017.5mb 85f 87f
1:48pm 7 11 mph 1017.5mb 85f 86f
1:42pm 6 10 mph 1017.6mb 85f 86f
1:36pm 5 9 mph 1017.7mb 85f 86f
1:30pm 6 10 mph 1017.6mb 85f 86f
1:24pm 6 8 mph 1017.6mb 85f 86f
1:18pm 7 10 mph 1017.7mb 85f 86f
1:12pm 6 9 mph 1017.6mb 85f 86f
1:06pm 3 8 mph 1017.7mb 85f 86f
1:00pm 5 9 mph 1017.8mb 85f 85f
12:54pm 6 9 mph 1017.8mb 85f 85f
12:48pm 3 9 mph 1017.8mb 85f 86f
12:42pm 7 10 mph 1017.8mb 85f 86f
12:36pm 5 10 mph 1017.8mb 85f 86f
12:30pm 6 8 mph 1017.9mb 85f 85f
12:24pm 5 8 mph 1018mb 85f 86f
12:18pm 2 8 mph 1018.1mb 85f 86f
12:12pm 2 8 mph 1018mb 85f 87f
12:06pm 5 8 mph 1018.1mb 85f 87f
12:00pm 1 3 mph 1018.1mb 85f 86f
11:54am 1 8 mph 1018.1mb 85f 85f
11:48am 5 6 mph 1018.1mb 84f 85f
11:42am 2 5 mph 1018.1mb 84f 85f
11:36am 3 6 mph 1018.1mb 84f 85f
11:30am 5 7 mph 1018.1mb 85f 85f
11:24am  -  2 mph 1018.1mb 84f 86f
11:18am 3 5 mph 1018.1mb 84f 84f
11:12am 3 5 mph 1018.2mb 84f 85f
11:06am 3 5 mph 1018.2mb 84f 84f
11:00am 5 6 mph 1018.1mb 84f 84f
10:54am 2 7 mph 1018.2mb 84f 84f
10:48am 5 7 mph 1018.3mb 84f 84f
10:42am 6 7 mph 1018.2mb 84f 83f
10:36am 6 7 mph 1018.3mb 84f 83f
10:30am 3 6 mph 1018.3mb 84f 84f
10:24am 6
mph
1018.2mb 84f 83f
10:18am 2 6 mph 1018.3mb 84f 83f
10:12am 5 7 mph 1018.2mb 84f 83f
10:06am 1 5 mph 1018.3mb 84f 83f
10:00am 2 5 mph 1018.2mb 84f 82f
9:54am 5 6 mph 1018.2mb 84f 82f
9:48am 5 6 mph 1018.1mb 84f 82f
9:42am 3 6 mph 1018.1mb 84f 82f
9:36am 5 6 mph 1018.1mb 84f 82f
9:30am 5 6 mph 1018.1mb 84f 82f
9:24am 5 9 mph 1018.2mb 84f 82f
9:18am 5 6 mph 1018.2mb 84f 81f
9:12am 5 6 mph 1018.1mb 84f 81f
9:06am 5 7 mph 1018mb 84f 81f
9:00am 3 6 mph 1017.9mb 84f 81f
8:54am 5 6 mph 1018mb 84f 81f
8:48am 3 5 mph 1018.1mb 84f 81f
8:42am 3 5 mph 1018mb 84f 81f
8:36am 3 5 mph 1018mb 84f 81f
8:30am 3 5 mph 1018.1mb 84f 81f
8:24am 2 3 mph 1018.1mb 84f 81f
8:18am 2 3 mph 1018mb 84f 81f
8:12am 3
mph
1018mb 84f 80f
8:06am 3
mph
1018mb 84f 80f
8:00am 2 3 mph 1017.9mb 84f 80f
7:54am 3 5 mph 1017.8mb 84f 79f
7:48am 3 5 mph 1017.7mb 84f 79f
7:42am 3 5 mph 1017.7mb 84f 79f
7:36am 5
mph
1017.6mb 84f 78f
7:30am 5 6 mph 1017.6mb 84f 78f
7:24am 5 6 mph 1017.5mb 84f 78f
7:18am 5 6 mph 1017.4mb 84f 79f
7:12am 5 6 mph 1017.3mb 84f 78f
7:06am 3 5 mph 1017.3mb 85f 78f
7:00am 3
mph
1017.2mb 85f 78f
6:54am 3 5 mph 1017.2mb 85f 79f
6:48am 3 5 mph 1017.1mb 85f 79f
6:42am 3
mph
1017.1mb 85f 79f
6:36am 2 3 mph 1017mb 84f 79f
6:30am 2 3 mph 1017mb 84f 78f
6:24am 2 3 mph 1016.9mb 85f 79f
6:18am 3 5 mph 1016.8mb 85f 79f
6:12am 5 6 mph 1016.8mb 85f 79f
6:06am 6
mph
1016.8mb 85f 79f
6:00am 6
mph
1016.8mb 85f 79f
5:54am 3 5 mph 1016.7mb 85f 79f
5:48am 5
mph
1016.7mb 85f 79f
5:42am 5 6 mph 1016.7mb 85f 79f
5:36am 3 5 mph 1016.7mb 85f 79f
5:30am 3 5 mph 1016.7mb 85f 79f
5:24am 3 5 mph 1016.9mb 85f 79f
5:18am 3
mph
1016.9mb 85f 79f
5:12am 1 2 mph 1016.8mb 85f 79f
5:06am 3
mph
1016.8mb 85f 79f
5:00am 2 3 mph 1016.8mb 85f 79f
4:54am 2 3 mph 1016.7mb 85f 79f
4:48am 2 3 mph 1016.8mb 85f 79f
4:42am 2 3 mph 1016.8mb 85f 79f
4:36am 3 5 mph 1016.7mb 85f 79f
4:30am 3 5 mph 1016.7mb 85f 79f
4:24am 2 3 mph 1016.7mb 85f 79f
4:18am 3
mph
1016.8mb 85f 79f
4:12am 2 3 mph 1016.8mb 85f 79f
4:06am 2 3 mph 1016.9mb 85f 79f
4:00am 2 5 mph 1016.8mb 85f 79f
3:54am 3
mph
1016.8mb 85f 79f
3:48am 2 3 mph 1016.9mb 85f 79f
3:42am 2 3 mph 1016.8mb 85f 79f
3:36am 3
mph
1016.9mb 85f 79f
3:30am 3 5 mph 1016.9mb 85f 79f
3:24am 3 5 mph 1016.9mb 85f 79f
3:18am 5 6 mph 1016.9mb 85f 80f
3:12am 6
mph
1016.9mb 85f 80f
3:06am 5 6 mph 1017mb 85f 80f
3:00am 6
mph
1017.1mb 85f 80f
2:54am 5
mph
1017.1mb 85f 80f
2:48am 3 5 mph 1017mb 85f 80f
2:42am 3 5 mph 1017mb 85f 80f
2:36am 3 5 mph 1017.1mb 85f 80f
2:30am 5
mph
1017.2mb 85f 80f
2:24am 5
mph
1017.2mb 85f 80f
2:18am 3 5 mph 1017.3mb 85f 80f
2:12am 2 3 mph 1017.3mb 85f 80f
2:06am 1 3 mph 1017.3mb 85f 80f
2:00am 3 6 mph 1017.4mb 85f 81f
1:54am 5
mph
1017.5mb 85f 80f
1:48am 2
mph
1017.5mb 85f 80f
1:42am 1 2 mph 1017.4mb 85f 80f
1:36am 2 3 mph 1017.5mb 85f 80f
1:30am 2 3 mph 1017.5mb 85f 80f
1:24am 2 3 mph 1017.5mb 85f 80f
1:18am 1 2 mph 1017.5mb 85f 80f
1:12am 1 3 mph 1017.4mb 85f 80f
1:06am 2 3 mph 1017.4mb 85f 80f
1:00am 2 3 mph 1017.5mb 85f 80f
12:54am 2 3 mph 1017.6mb 85f 80f
12:48am 2 5 mph 1017.6mb 85f 80f
12:42am 3 6 mph 1017.6mb 85f 80f
12:36am 2 3 mph 1017.7mb 85f 80f
12:30am 2 5 mph 1017.8mb 85f 80f
12:24am 2 5 mph 1017.9mb 85f 81f
12:18am 3
mph
1018mb 85f 81f
12:12am 2
mph
1018.1mb 85f 81f
12:06am 1 2 mph 1018.1mb 84f 80f
12:00am 2
mph
1018.1mb 84f 81f
Tue 07/22 11:54pm 1 3 mph 1018.2mb 84f 81f
11:48pm 2 3 mph 1018.3mb 84f 81f
11:42pm 2 3 mph 1018.2mb 84f 81f
11:36pm 2 3 mph 1018.1mb 84f 81f
11:30pm 2 3 mph 1018.1mb 84f 81f
11:24pm 2 3 mph 1018.1mb 84f 81f
11:18pm 2 3 mph 1017.9mb 84f 81f
11:12pm 2
mph
1017.9mb 84f 81f
11:06pm 1 2 mph 1017.8mb 84f 81f
11:00pm 1 2 mph 1017.7mb 84f 81f
10:54pm 2
mph
1017.7mb 84f 81f
10:48pm  -  1 mph 1017.8mb 84f 81f
10:42pm 1 2 mph 1017.7mb 84f 81f
10:36pm 2 5 mph 1017.6mb 84f 81f
10:30pm 2 5 mph 1017.5mb 84f 81f
10:24pm 2 3 mph 1017.4mb 84f 81f
10:18pm 2 3 mph 1017.2mb 84f 81f
10:12pm 3
mph
1017.3mb 84f 81f
10:06pm 3 5 mph 1017.4mb 84f 81f
10:00pm 2 5 mph 1017.5mb 84f 81f
9:54pm 2 6 mph 1017.6mb 84f 81f
9:48pm 3
mph
1017.6mb 84f 81f
9:42pm 3
mph
1017.6mb 84f 81f
9:36pm 3 6 mph 1017.7mb 84f 81f
9:30pm 3 6 mph 1017.8mb 84f 81f
9:24pm 3 5 mph 1017.9mb 84f 81f
9:18pm 3 6 mph 1017.8mb 84f 81f
9:12pm 5 7 mph 1017.8mb 84f 81f
9:06pm 3 6 mph 1017.8mb 84f 81f
9:00pm 2 6 mph 1017.7mb 84f 81f
8:54pm 3 5 mph 1017.7mb 84f 81f
8:48pm 3 6 mph 1017.8mb 84f 81f
8:42pm 3 7 mph 1017.8mb 84f 81f
8:36pm 5 8 mph 1017.8mb 84f 81f
8:30pm 6 8 mph 1017.8mb 84f 81f
8:24pm 6 9 mph 1017.9mb 84f 81f
8:18pm 6 8 mph 1017.8mb 84f 81f
8:12pm 6 10 mph 1017.7mb 84f 81f
8:06pm 6 8 mph 1017.6mb 84f 82f
8:00pm 5 10 mph 1017.4mb 84f 82f
7:54pm 7 10 mph 1017.3mb 84f 82f
7:48pm 5 8 mph 1017.3mb 84f 82f
7:42pm 6 9 mph 1017.1mb 84f 82f
7:36pm 6 10 mph 1017mb 84f 82f
7:30pm 7 10 mph 1017mb 84f 82f
7:24pm 6 10 mph 1016.8mb 84f 82f
7:18pm 7 10 mph 1016.7mb 84f 82f
7:12pm 7 11 mph 1016.7mb 84f 82f
7:06pm 7 11 mph 1016.7mb 84f 82f
7:00pm 6 11 mph 1016.8mb 84f 82f
6:54pm 7 11 mph 1016.8mb 84f 82f
6:48pm 5 11 mph 1016.8mb 84f 83f
6:42pm 6 10 mph 1017mb 84f 83f
6:36pm 8 14 mph 1017mb 84f 82f
6:30pm 6 11 mph 1017.1mb 84f 83f
6:24pm 7 14 mph 1017mb 84f 83f
6:18pm 7 11 mph 1017.1mb 84f 83f
6:12pm 9 14 mph 1017mb 84f 83f
6:06pm 6 10 mph 1017.1mb 84f 83f
6:00pm 8 13 mph 1017.1mb 84f 83f
5:54pm 9 14 mph 1017.1mb 84f 83f
5:48pm 7 13 mph 1017.1mb 84f 83f
5:42pm 3 8 mph 1017.2mb 84f 83f
5:36pm 5 9 mph 1017.1mb 84f 83f
5:30pm 5 10 mph 1017.2mb 84f 83f
5:24pm 6 9 mph 1017.3mb 84f 83f
5:18pm 6 9 mph 1017.3mb 84f 82f
5:12pm 5 10 mph 1017.2mb 84f 82f
5:06pm 6 10 mph 1017.3mb 84f 82f
5:00pm 5 10 mph 1017.2mb 84f 83f
4:54pm 7 13 mph 1017.2mb 84f 83f
4:48pm 6 9 mph 1017.2mb 84f 84f
4:42pm 6 14 mph 1017.2mb 84f 84f
4:36pm 6 11 mph 1017.2mb 84f 85f
4:30pm 7 13 mph 1017.2mb 84f 84f
4:24pm 7 13 mph 1017.1mb 84f 84f
4:18pm 7 11 mph 1017.1mb 84f 85f
4:12pm 9 16 mph 1017.1mb 84f 84f
4:06pm 9 14 mph 1017mb 84f 84f
4:00pm 5 11 mph 1016.9mb 84f 85f
3:54pm 5 14 mph 1017.1mb 84f 84f
3:48pm 9 15 mph 1017.1mb 84f 83f